Time,TemperatureF,DewpointF,PressureIn,WindDirection,WindDirectionDegrees,WindSpeedMPH,WindSpeedGustMPH,Humidity,HourlyPrecipIn,Conditions,Clouds,dailyrainin,SoftwareType,DateUTC
2013-10-05 00:06:00,72.3,70.2,29.92,ESE,112,0.0,-999.0,93,-99.99,,,0.00,Acu-Link.com,2013-10-05 04:06:00,
2013-10-05 00:21:00,72.1,70.0,29.92,ESE,112,0.0,-999.0,93,-99.99,,,0.00,Acu-Link.com,2013-10-05 04:21:00,
2013-10-05 00:37:00,72.0,69.8,29.91,ESE,112,0.0,-999.0,93,-99.99,,,0.00,Acu-Link.com,2013-10-05 04:37:00,
2013-10-05 00:52:00,71.8,69.6,29.91,ESE,112,0.0,-999.0,93,-99.99,,,0.00,Acu-Link.com,2013-10-05 04:52:00,
2013-10-05 01:08:00,71.6,69.5,29.91,ESE,112,0.0,-999.0,93,-99.99,,,0.00,Acu-Link.com,2013-10-05 05:08:00,
2013-10-05 01:23:00,71.6,69.5,29.91,ESE,112,0.0,-999.0,93,-99.99,,,0.00,Acu-Link.com,2013-10-05 05:23:00,
2013-10-05 01:38:00,71.2,69.4,29.91,ESE,112,0.0,-999.0,94,-99.99,,,0.00,Acu-Link.com,2013-10-05 05:38:00,
2013-10-05 01:53:00,71.2,69.4,29.91,ESE,112,0.0,-999.0,94,-99.99,,,0.00,Acu-Link.com,2013-10-05 05:53:00,
2013-10-05 02:09:00,71.1,69.2,29.90,ESE,112,0.0,-999.0,94,-99.99,,,0.00,Acu-Link.com,2013-10-05 06:09:00,
2013-10-05 02:24:00,70.9,69.1,29.90,ESE,112,0.0,-999.0,94,-99.99,,,0.00,Acu-Link.com,2013-10-05 06:24:00,
2013-10-05 02:40:00,70.9,69.1,29.90,ESE,112,0.0,-999.0,94,-99.99,,,0.00,Acu-Link.com,2013-10-05 06:40:00,
2013-10-05 02:55:00,70.7,68.9,29.89,ESE,112,0.0,-999.0,94,-99.99,,,0.00,Acu-Link.com,2013-10-05 06:55:00,
2013-10-05 03:11:00,70.5,68.7,29.89,SE,135,0.0,-999.0,94,-99.99,,,0.00,Acu-Link.com,2013-10-05 07:11:00,
2013-10-05 03:26:00,70.3,68.5,29.89,SSE,157,0.0,-999.0,94,-99.99,,,0.00,Acu-Link.com,2013-10-05 07:26:00,
2013-10-05 03:42:00,70.2,68.3,29.89,SSE,157,0.0,-999.0,94,-99.99,,,0.00,Acu-Link.com,2013-10-05 07:42:00,
2013-10-05 03:58:00,70.2,68.3,29.89,SSE,157,0.0,-999.0,94,-99.99,,,0.00,Acu-Link.com,2013-10-05 07:58:00,
2013-10-05 04:13:00,70.0,68.2,29.88,SSE,157,0.0,-999.0,94,-99.99,,,0.00,Acu-Link.com,2013-10-05 08:13:00,
2013-10-05 04:28:00,69.8,68.0,29.88,SSE,157,0.0,-999.0,94,-99.99,,,0.00,Acu-Link.com,2013-10-05 08:28:00,
2013-10-05 04:43:00,69.6,67.8,29.87,SSE,157,0.0,-999.0,94,-99.99,,,0.00,Acu-Link.com,2013-10-05 08:43:00,
2013-10-05 04:58:00,69.6,67.8,29.87,SSE,157,0.0,-999.0,94,-99.99,,,0.00,Acu-Link.com,2013-10-05 08:58:00,
2013-10-05 05:13:00,69.4,67.6,29.87,SSE,157,0.0,-999.0,94,-99.99,,,0.00,Acu-Link.com,2013-10-05 09:13:00,
2013-10-05 05:29:00,69.3,67.5,29.87,SSE,157,0.0,-999.0,94,-99.99,,,0.00,Acu-Link.com,2013-10-05 09:29:00,
2013-10-05 05:44:00,69.1,67.3,29.87,SSE,157,0.0,-999.0,94,-99.99,,,0.00,Acu-Link.com,2013-10-05 09:44:00,
2013-10-05 05:59:00,68.9,67.1,29.87,SSE,157,0.0,-999.0,94,-99.99,,,0.00,Acu-Link.com,2013-10-05 09:59:00,
2013-10-05 06:14:00,68.7,66.9,29.86,SSE,157,0.0,-999.0,94,-99.99,,,0.00,Acu-Link.com,2013-10-05 10:14:00,
2013-10-05 06:29:00,68.5,66.7,29.87,SSE,157,0.0,-999.0,94,-99.99,,,0.00,Acu-Link.com,2013-10-05 10:29:00,
2013-10-05 06:44:00,68.4,66.6,29.87,SSE,157,0.0,-999.0,94,-99.99,,,0.00,Acu-Link.com,2013-10-05 10:44:00,
2013-10-05 06:59:00,67.8,66.3,29.88,North,0,0.0,-999.0,95,-99.99,,,0.00,Acu-Link.com,2013-10-05 10:59:00,
2013-10-05 07:14:00,67.6,66.2,29.89,North,0,0.0,-999.0,95,-99.99,,,0.00,Acu-Link.com,2013-10-05 11:14:00,
2013-10-05 07:30:00,67.6,66.2,29.89,West,270,0.0,-999.0,95,-99.99,,,0.00,Acu-Link.com,2013-10-05 11:30:00,
2013-10-05 07:45:00,67.6,66.2,29.89,SSE,157,0.0,-999.0,95,-99.99,,,0.00,Acu-Link.com,2013-10-05 11:45:00,
2013-10-05 08:00:00,68.0,66.5,29.89,SW,225,0.0,-999.0,95,-99.99,,,0.00,Acu-Link.com,2013-10-05 12:00:00,
2013-10-05 08:15:00,69.3,67.8,29.89,NNE,22,0.0,-999.0,95,-99.99,,,0.00,Acu-Link.com,2013-10-05 12:15:00,
2013-10-05 08:31:00,70.9,69.4,29.90,SE,135,0.0,-999.0,95,-99.99,,,0.00,Acu-Link.com,2013-10-05 12:31:00,
2013-10-05 08:46:00,74.7,71.5,29.89,SSE,157,0.0,-999.0,90,-99.99,,,0.00,Acu-Link.com,2013-10-05 12:46:00,
2013-10-05 09:01:00,75.6,72.4,29.90,SSE,157,0.0,-999.0,90,-99.99,,,0.00,Acu-Link.com,2013-10-05 13:01:00,
2013-10-05 09:16:00,81.9,75.4,29.90,West,270,0.0,-999.0,81,-99.99,,,0.00,Acu-Link.com,2013-10-05 13:16:00,
2013-10-05 09:32:00,80.2,75.3,29.91,NNE,22,0.0,-999.0,85,-99.99,,,0.00,Acu-Link.com,2013-10-05 13:32:00,
2013-10-05 09:47:00,81.9,76.5,29.91,NE,45,0.0,-999.0,84,-99.99,,,0.00,Acu-Link.com,2013-10-05 13:47:00,
2013-10-05 10:02:00,81.9,75.8,29.91,ENE,67,1.6,-999.0,82,-99.99,,,0.00,Acu-Link.com,2013-10-05 14:02:00,
2013-10-05 10:18:00,82.2,75.8,29.92,North,0,1.1,-999.0,81,-99.99,,,0.00,Acu-Link.com,2013-10-05 14:18:00,
2013-10-05 10:33:00,82.8,75.6,29.92,SE,135,2.7,-999.0,79,-99.99,,,0.00,Acu-Link.com,2013-10-05 14:33:00,
2013-10-05 10:48:00,83.1,75.9,29.91,NE,45,1.1,-999.0,79,-99.99,,,0.00,Acu-Link.com,2013-10-05 14:48:00,
2013-10-05 11:03:00,84.9,76.9,29.92,ESE,112,1.6,-999.0,77,-99.99,,,0.00,Acu-Link.com,2013-10-05 15:03:00,
2013-10-05 11:18:00,86.5,76.4,29.92,NE,45,2.2,-999.0,72,-99.99,,,0.00,Acu-Link.com,2013-10-05 15:18:00,
2013-10-05 11:34:00,85.6,75.5,29.91,SSE,157,1.1,-999.0,72,-99.99,,,0.00,Acu-Link.com,2013-10-05 15:34:00,
2013-10-05 11:49:00,85.1,75.4,29.90,NE,45,0.0,-999.0,73,-99.99,,,0.00,Acu-Link.com,2013-10-05 15:49:00,
2013-10-05 12:04:00,84.9,74.9,29.90,SE,135,0.0,-999.0,72,-99.99,,,0.00,Acu-Link.com,2013-10-05 16:04:00,
2013-10-05 12:19:00,83.7,74.9,29.90,SE,135,1.1,-999.0,75,-99.99,,,0.00,Acu-Link.com,2013-10-05 16:19:00,
2013-10-05 12:35:00,84.0,74.8,29.90,South,180,2.2,-999.0,74,-99.99,,,0.00,Acu-Link.com,2013-10-05 16:35:00,
2013-10-05 12:50:00,84.7,74.7,29.89,SSE,157,2.7,-999.0,72,-99.99,,,0.00,Acu-Link.com,2013-10-05 16:50:00,
2013-10-05 13:05:00,84.0,74.4,29.89,ENE,67,0.0,-999.0,73,-99.99,,,0.00,Acu-Link.com,2013-10-05 17:05:00,
2013-10-05 13:21:00,84.2,74.2,29.88,NNE,22,0.0,-999.0,72,-99.99,,,0.00,Acu-Link.com,2013-10-05 17:21:00,
2013-10-05 13:36:00,84.4,74.3,29.88,ENE,67,1.1,-999.0,72,-99.99,,,0.00,Acu-Link.com,2013-10-05 17:36:00,
2013-10-05 13:51:00,83.8,74.2,29.87,South,180,0.0,-999.0,73,-99.99,,,0.00,Acu-Link.com,2013-10-05 17:51:00,
2013-10-05 14:06:00,85.1,74.6,29.87,SW,225,2.2,-999.0,71,-99.99,,,0.00,Acu-Link.com,2013-10-05 18:06:00,
2013-10-05 14:22:00,84.9,74.9,29.86,ESE,112,0.0,-999.0,72,-99.99,,,0.00,Acu-Link.com,2013-10-05 18:22:00,
2013-10-05 14:37:00,84.2,74.2,29.85,SSE,157,2.2,-999.0,72,-99.99,,,0.00,Acu-Link.com,2013-10-05 18:37:00,
2013-10-05 14:52:00,84.7,74.7,29.85,ESE,112,2.2,-999.0,72,-99.99,,,0.00,Acu-Link.com,2013-10-05 18:52:00,
2013-10-05 15:07:00,84.7,74.7,29.85,North,0,1.6,-999.0,72,-99.99,,,0.00,Acu-Link.com,2013-10-05 19:07:00,
2013-10-05 15:23:00,84.9,74.4,29.84,NE,45,1.6,-999.0,71,-99.99,,,0.00,Acu-Link.com,2013-10-05 19:23:00,
2013-10-05 15:38:00,86.7,74.9,29.84,South,180,1.6,-999.0,68,-99.99,,,0.00,Acu-Link.com,2013-10-05 19:38:00,
2013-10-05 15:53:00,85.3,74.8,29.84,South,180,3.1,-999.0,71,-99.99,,,0.00,Acu-Link.com,2013-10-05 19:53:00,
2013-10-05 16:09:00,84.9,74.4,29.84,South,180,1.6,-999.0,71,-99.99,,,0.00,Acu-Link.com,2013-10-05 20:09:00,
2013-10-05 16:24:00,87.1,74.3,29.84,South,180,1.6,-999.0,66,-99.99,,,0.00,Acu-Link.com,2013-10-05 20:24:00,
2013-10-05 16:39:00,85.5,73.2,29.83,ESE,112,2.7,-999.0,67,-99.99,,,0.00,Acu-Link.com,2013-10-05 20:39:00,
2013-10-05 16:54:00,85.1,73.8,29.83,NNE,22,3.1,-999.0,69,-99.99,,,0.00,Acu-Link.com,2013-10-05 20:54:00,
2013-10-05 17:09:00,84.7,73.4,29.83,South,180,2.7,-999.0,69,-99.99,,,0.00,Acu-Link.com,2013-10-05 21:09:00,
2013-10-05 17:24:00,83.8,73.8,29.83,ESE,112,1.1,-999.0,72,-99.99,,,0.00,Acu-Link.com,2013-10-05 21:24:00,
2013-10-05 17:40:00,82.4,73.7,29.83,SSE,157,2.2,-999.0,75,-99.99,,,0.00,Acu-Link.com,2013-10-05 21:40:00,
2013-10-05 17:55:00,82.0,73.7,29.83,SSE,157,4.3,-999.0,76,-99.99,,,0.00,Acu-Link.com,2013-10-05 21:55:00,
2013-10-05 18:10:00,81.3,73.4,29.83,South,180,2.2,-999.0,77,-99.99,,,0.00,Acu-Link.com,2013-10-05 22:10:00,
2013-10-05 18:25:00,80.8,73.6,29.83,East,90,0.0,-999.0,79,-99.99,,,0.00,Acu-Link.com,2013-10-05 22:25:00,
2013-10-05 18:41:00,80.1,73.3,29.83,SE,135,1.6,-999.0,80,-99.99,,,0.00,Acu-Link.com,2013-10-05 22:41:00,
2013-10-05 18:56:00,79.5,73.2,29.84,SE,135,2.2,-999.0,81,-99.99,,,0.00,Acu-Link.com,2013-10-05 22:56:00,
2013-10-05 19:11:00,78.6,73.0,29.84,East,90,1.1,-999.0,83,-99.99,,,0.00,Acu-Link.com,2013-10-05 23:11:00,
2013-10-05 19:27:00,78.3,73.0,29.84,SE,135,0.0,-999.0,84,-99.99,,,0.00,Acu-Link.com,2013-10-05 23:27:00,
2013-10-05 19:42:00,77.5,72.7,29.84,ENE,67,1.1,-999.0,85,-99.99,,,0.00,Acu-Link.com,2013-10-05 23:42:00,
2013-10-05 19:57:00,77.2,72.7,29.83,East,90,0.0,-999.0,86,-99.99,,,0.00,Acu-Link.com,2013-10-05 23:57:00,
2013-10-05 20:12:00,76.6,72.5,29.84,ESE,112,1.6,-999.0,87,-99.99,,,0.00,Acu-Link.com,2013-10-06 00:12:00,
2013-10-05 20:27:00,76.5,72.6,29.84,SE,135,0.0,-999.0,88,-99.99,,,0.00,Acu-Link.com,2013-10-06 00:27:00,
2013-10-05 20:43:00,76.1,72.3,29.84,NE,45,0.0,-999.0,88,-99.99,,,0.00,Acu-Link.com,2013-10-06 00:43:00,
2013-10-05 20:58:00,75.7,71.9,29.85,East,90,0.0,-999.0,88,-99.99,,,0.00,Acu-Link.com,2013-10-06 00:58:00,
2013-10-05 21:13:00,75.2,72.1,29.85,ESE,112,0.0,-999.0,90,-99.99,,,0.00,Acu-Link.com,2013-10-06 01:13:00,
2013-10-05 21:29:00,74.8,71.7,29.86,NW,315,0.0,-999.0,90,-99.99,,,0.00,Acu-Link.com,2013-10-06 01:29:00,
2013-10-05 21:44:00,74.5,71.3,29.85,NNE,22,0.0,-999.0,90,-99.99,,,0.00,Acu-Link.com,2013-10-06 01:44:00,
2013-10-05 21:59:00,74.1,71.3,29.85,West,270,0.0,-999.0,91,-99.99,,,0.00,Acu-Link.com,2013-10-06 01:59:00,
2013-10-05 22:14:00,73.9,71.1,29.86,SE,135,0.0,-999.0,91,-99.99,,,0.00,Acu-Link.com,2013-10-06 02:14:00,
2013-10-05 22:30:00,73.4,70.6,29.85,SE,135,0.0,-999.0,91,-99.99,,,0.00,Acu-Link.com,2013-10-06 02:30:00,
2013-10-05 22:45:00,73.2,70.8,29.86,West,270,0.0,-999.0,92,-99.99,,,0.00,Acu-Link.com,2013-10-06 02:45:00,
2013-10-05 23:15:00,72.5,70.4,29.86,SE,135,0.0,-999.0,93,-99.99,,,0.00,Acu-Link.com,2013-10-06 03:15:00,
2013-10-05 23:30:00,72.3,70.2,29.85,ESE,112,0.0,-999.0,93,-99.99,,,0.00,Acu-Link.com,2013-10-06 03:30:00,
2013-10-05 23:46:00,72.0,69.8,29.85,ESE,112,0.0,-999.0,93,-99.99,,,0.00,Acu-Link.com,2013-10-06 03:46:00,